Вернуться в каталог

STARLINK-4334

АктивенСвязьSSO
NORAD 53665·PAYLOAD·🇺🇸 United States

Запущен Aug 31, 2022 с Vandenberg Space Force Base

Loading…

Ближайшие Пролёты (ближайшие 24 часа)

TLE

СвежийSource: CelesTrak SupGP

Эпоха: Sep 14, 2026, 20:54 UTC

1 53665C 22105T   26257.87131944  .00568960  00000+0  13797-1 0  2572
2 53665  97.5168 146.2567 0001535  94.2149 320.8168 15.40813418    11

Отслеживайте STARLINK-4334 в реальном времени с AllMySat

Download on the App Store